Time,TemperatureF,DewpointF,PressureIn,WindDirection,WindDirectionDegrees,WindSpeedMPH,WindSpeedGustMPH,Humidity,HourlyPrecipIn,Conditions,Clouds,dailyrainin,SoftwareType,DateUTC
2013-03-19 00:00:00,37.1,30.9,29.35,West,270,4.5,9.6,78,2.61,,,3.96,WUHU216HW,2013-03-19 04:00:00,
2013-03-19 00:05:00,37.1,30.9,29.35,NE,45,5.4,12.1,78,2.60,,,0.20,WUHU216HW,2013-03-19 04:05:00,
2013-03-19 00:10:00,37.1,30.9,29.34,NW,315,4.7,9.2,78,2.60,,,0.20,WUHU216HW,2013-03-19 04:10:00,
2013-03-19 00:15:00,37.1,30.9,29.34,SSE,158,4.7,8.7,78,2.60,,,0.20,WUHU216HW,2013-03-19 04:15:00,
2013-03-19 00:20:00,37.1,30.9,29.34,SW,225,4.7,8.7,78,2.60,,,0.20,WUHU216HW,2013-03-19 04:20:00,
2013-03-19 00:25:00,37.1,30.9,29.34,WSW,248,5.4,10.3,78,2.60,,,0.20,WUHU216HW,2013-03-19 04:25:00,
2013-03-19 00:30:00,37.3,31.1,29.34,West,270,9.8,10.3,78,2.61,,,0.22,WUHU216HW,2013-03-19 04:30:00,
2013-03-19 00:35:00,37.3,31.1,29.33,WSW,248,6.7,11.4,78,2.61,,,0.22,WUHU216HW,2013-03-19 04:35:00,
2013-03-19 00:40:00,37.3,31.1,29.33,South,180,6.3,11.4,78,2.61,,,0.22,WUHU216HW,2013-03-19 04:40:00,
2013-03-19 00:45:00,37.3,31.1,29.33,South,180,8.7,10.3,78,2.60,,,0.22,WUHU216HW,2013-03-19 04:45:00,
2013-03-19 00:50:00,37.3,31.1,29.33,SE,135,8.5,11.4,78,2.60,,,0.22,WUHU216HW,2013-03-19 04:50:00,
2013-03-19 00:55:00,37.3,31.1,29.34,WSW,248,6.3,11.4,78,2.60,,,0.22,WUHU216HW,2013-03-19 04:55:00,
2013-03-19 01:00:00,37.3,31.1,29.33,SSW,203,9.4,9.6,78,2.60,,,0.22,WUHU216HW,2013-03-19 05:00:00,
2013-03-19 01:05:00,37.3,31.1,29.33,SW,225,7.8,9.6,78,2.60,,,0.44,WUHU216HW,2013-03-19 05:05:00,
2013-03-19 01:10:00,37.3,31.1,29.33,SW,225,3.1,9.4,78,2.60,,,0.44,WUHU216HW,2013-03-19 05:10:00,
2013-03-19 01:15:00,37.3,31.1,29.33,SSW,203,8.5,9.8,78,2.60,,,0.44,WUHU216HW,2013-03-19 05:15:00,
2013-03-19 01:20:00,37.3,31.3,29.34,SSW,203,5.4,9.8,79,2.60,,,0.44,WUHU216HW,2013-03-19 05:20:00,
2013-03-19 01:25:00,37.3,31.3,29.33,West,270,5.6,8.5,79,2.60,,,0.44,WUHU216HW,2013-03-19 05:25:00,
2013-03-19 01:30:00,37.3,31.3,29.34,South,180,6.9,8.5,79,2.59,,,0.44,WUHU216HW,2013-03-19 05:30:00,
2013-03-19 01:35:00,37.3,31.3,29.34,SW,225,7.2,9.6,79,2.59,,,0.44,WUHU216HW,2013-03-19 05:35:00,
2013-03-19 01:40:00,37.3,31.7,29.33,South,180,7.2,11.0,80,2.60,,,0.45,WUHU216HW,2013-03-19 05:40:00,
2013-03-19 01:45:00,37.1,31.5,29.34,WSW,248,5.8,11.0,80,2.60,,,0.45,WUHU216HW,2013-03-19 05:45:00,
2013-03-19 01:50:00,37.3,31.7,29.34,SW,225,4.3,8.9,80,2.60,,,0.45,WUHU216HW,2013-03-19 05:50:00,
2013-03-19 01:55:00,37.1,31.5,29.34,SE,135,5.8,8.5,80,2.60,,,0.45,WUHU216HW,2013-03-19 05:55:00,
2013-03-19 02:00:00,37.3,31.7,29.34,SW,225,2.5,10.5,80,2.60,,,0.45,WUHU216HW,2013-03-19 06:00:00,
2013-03-19 02:05:00,37.4,32.1,29.34,West,270,5.1,12.1,81,2.60,,,0.68,WUHU216HW,2013-03-19 06:05:00,
2013-03-19 02:10:00,37.4,31.9,29.34,West,270,3.4,12.1,80,2.60,,,0.68,WUHU216HW,2013-03-19 06:10:00,
2013-03-19 02:15:00,37.4,32.1,29.34,West,270,4.3,11.6,81,2.60,,,0.68,WUHU216HW,2013-03-19 06:15:00,
2013-03-19 02:20:00,37.4,32.1,29.34,West,270,3.1,11.6,81,2.60,,,0.68,WUHU216HW,2013-03-19 06:20:00,
2013-03-19 02:25:00,37.4,32.1,29.34,SE,135,6.0,12.8,81,2.60,,,0.68,WUHU216HW,2013-03-19 06:25:00,
2013-03-19 02:30:00,37.4,32.1,29.35,WNW,293,4.9,12.8,81,2.61,,,0.69,WUHU216HW,2013-03-19 06:30:00,
2013-03-19 02:35:00,37.4,32.1,29.35,NW,315,8.5,8.9,81,2.61,,,0.69,WUHU216HW,2013-03-19 06:35:00,
2013-03-19 02:40:00,37.4,32.1,29.36,WNW,293,6.0,9.8,81,2.60,,,0.69,WUHU216HW,2013-03-19 06:40:00,
2013-03-19 02:45:00,37.4,32.4,29.36,West,270,8.1,9.8,82,2.60,,,0.69,WUHU216HW,2013-03-19 06:45:00,
2013-03-19 02:50:00,37.4,32.4,29.36,NW,315,7.2,8.9,82,2.60,,,0.69,WUHU216HW,2013-03-19 06:50:00,
2013-03-19 02:55:00,37.4,32.4,29.36,NNW,338,6.0,9.2,82,2.60,,,0.69,WUHU216HW,2013-03-19 06:55:00,
2013-03-19 03:00:00,37.3,32.6,29.36,West,270,8.9,11.6,83,2.60,,,0.69,WUHU216HW,2013-03-19 07:00:00,
2013-03-19 03:05:00,37.3,32.6,29.36,NW,315,6.7,11.6,83,2.60,,,0.94,WUHU216HW,2013-03-19 07:05:00,
2013-03-19 03:10:00,37.1,32.4,29.36,NNW,338,10.3,11.2,83,2.60,,,0.94,WUHU216HW,2013-03-19 07:10:00,
2013-03-19 03:15:00,37.1,32.4,29.36,West,270,6.0,10.3,83,2.60,,,0.94,WUHU216HW,2013-03-19 07:15:00,
2013-03-19 03:20:00,37.1,32.4,29.36,NW,315,7.4,9.2,83,2.60,,,0.94,WUHU216HW,2013-03-19 07:20:00,
2013-03-19 03:25:00,37.1,32.7,29.36,NW,315,6.0,8.5,84,2.59,,,0.94,WUHU216HW,2013-03-19 07:25:00,
2013-03-19 03:30:00,37.1,32.7,29.36,NW,315,6.5,10.3,84,2.60,,,0.95,WUHU216HW,2013-03-19 07:30:00,
2013-03-19 03:35:00,36.9,32.5,29.36,NW,315,6.5,12.8,84,2.60,,,0.95,WUHU216HW,2013-03-19 07:35:00,
2013-03-19 03:40:00,36.9,32.5,29.36,WNW,293,12.1,12.8,84,2.60,,,0.95,WUHU216HW,2013-03-19 07:40:00,
2013-03-19 03:45:00,36.9,32.8,29.36,NW,315,6.9,13.0,85,2.60,,,0.95,WUHU216HW,2013-03-19 07:45:00,
2013-03-19 03:50:00,36.9,32.5,29.36,WSW,248,7.6,13.2,84,2.60,,,0.95,WUHU216HW,2013-03-19 07:50:00,
2013-03-19 03:55:00,36.7,32.6,29.36,WNW,293,8.1,13.2,85,2.60,,,0.95,WUHU216HW,2013-03-19 07:55:00,
2013-03-19 04:00:00,36.7,32.6,29.36,WNW,293,6.9,9.6,85,2.61,,,0.96,WUHU216HW,2013-03-19 08:00:00,
2013-03-19 04:05:00,36.7,32.6,29.36,West,270,5.6,9.2,85,2.61,,,1.22,WUHU216HW,2013-03-19 08:05:00,
2013-03-19 04:10:00,36.7,32.6,29.36,West,270,5.1,9.2,85,2.61,,,1.22,WUHU216HW,2013-03-19 08:10:00,
2013-03-19 04:15:00,36.7,32.6,29.36,WSW,248,4.7,9.2,85,2.61,,,1.22,WUHU216HW,2013-03-19 08:15:00,
2013-03-19 04:20:00,36.5,32.4,29.36,NW,315,6.3,10.5,85,2.61,,,1.22,WUHU216HW,2013-03-19 08:20:00,
2013-03-19 04:25:00,36.5,32.4,29.36,NW,315,7.6,10.5,85,2.61,,,1.22,WUHU216HW,2013-03-19 08:25:00,
2013-03-19 04:30:00,36.5,32.4,29.36,West,270,9.2,9.4,85,2.60,,,1.22,WUHU216HW,2013-03-19 08:30:00,
2013-03-19 04:35:00,36.5,32.4,29.36,West,270,7.6,9.6,85,2.60,,,1.22,WUHU216HW,2013-03-19 08:35:00,
2013-03-19 04:40:00,36.5,32.4,29.36,WNW,293,11.2,11.2,85,2.60,,,1.22,WUHU216HW,2013-03-19 08:40:00,
2013-03-19 04:45:00,36.5,32.4,29.36,WNW,293,13.4,13.4,85,2.60,,,1.22,WUHU216HW,2013-03-19 08:45:00,
2013-03-19 04:50:00,36.5,32.4,29.36,West,270,11.0,13.6,85,2.61,,,1.23,WUHU216HW,2013-03-19 08:50:00,
2013-03-19 04:55:00,36.7,32.9,29.37,WNW,293,18.6,18.6,86,2.61,,,1.23,WUHU216HW,2013-03-19 08:55:00,
2013-03-19 05:00:00,36.5,32.4,29.37,NW,315,15.7,19.0,85,2.60,,,1.23,WUHU216HW,2013-03-19 09:00:00,
2013-03-19 05:05:00,36.4,32.2,29.37,NW,315,15.0,19.2,85,2.60,,,1.50,WUHU216HW,2013-03-19 09:05:00,
2013-03-19 05:10:00,36.4,32.2,29.38,WNW,293,14.8,19.2,85,2.60,,,1.50,WUHU216HW,2013-03-19 09:10:00,
2013-03-19 05:15:00,36.2,32.0,29.38,WNW,293,11.2,17.2,85,2.60,,,1.50,WUHU216HW,2013-03-19 09:15:00,
2013-03-19 05:20:00,36.2,32.0,29.38,West,270,14.3,18.3,85,2.60,,,1.50,WUHU216HW,2013-03-19 09:20:00,
2013-03-19 05:25:00,36.2,32.0,29.38,NW,315,12.1,21.9,85,2.60,,,1.50,WUHU216HW,2013-03-19 09:25:00,
2013-03-19 05:30:00,36.2,31.8,29.38,West,270,13.9,21.9,84,2.60,,,1.50,WUHU216HW,2013-03-19 09:30:00,
2013-03-19 05:35:00,36.2,31.8,29.38,West,270,11.4,19.0,84,2.60,,,1.50,WUHU216HW,2013-03-19 09:35:00,
2013-03-19 05:40:00,36.2,31.8,29.38,WNW,293,13.2,18.1,84,2.60,,,1.50,WUHU216HW,2013-03-19 09:40:00,
2013-03-19 05:45:00,36.2,31.8,29.38,NW,315,13.4,19.7,84,2.59,,,1.50,WUHU216HW,2013-03-19 09:45:00,
2013-03-19 05:50:00,36.2,31.8,29.38,NW,315,9.2,19.7,84,2.59,,,1.50,WUHU216HW,2013-03-19 09:50:00,
2013-03-19 05:55:00,36.2,31.8,29.38,WSW,248,12.3,19.2,84,2.59,,,1.50,WUHU216HW,2013-03-19 09:55:00,
2013-03-19 06:00:00,36.2,31.5,29.38,NNW,338,9.6,19.2,83,2.59,,,1.50,WUHU216HW,2013-03-19 10:00:00,
2013-03-19 06:05:00,36.4,31.7,29.38,WNW,293,13.2,19.5,83,2.59,,,1.78,WUHU216HW,2013-03-19 10:05:00,
2013-03-19 06:10:00,36.2,31.1,29.38,West,270,14.5,19.5,82,2.59,,,1.78,WUHU216HW,2013-03-19 10:10:00,
2013-03-19 06:15:00,36.2,31.1,29.39,WNW,293,19.5,19.9,82,2.59,,,1.78,WUHU216HW,2013-03-19 10:15:00,
2013-03-19 06:20:00,36.4,31.1,29.39,NNW,338,9.8,19.9,81,2.59,,,1.78,WUHU216HW,2013-03-19 10:20:00,
2013-03-19 06:25:00,36.4,30.8,29.39,WNW,293,17.7,19.0,80,2.59,,,1.78,WUHU216HW,2013-03-19 10:25:00,
2013-03-19 06:30:00,36.4,30.8,29.39,WNW,293,13.6,21.3,80,2.59,,,1.78,WUHU216HW,2013-03-19 10:30:00,
2013-03-19 06:35:00,36.4,30.8,29.39,West,270,15.4,21.3,80,2.59,,,1.78,WUHU216HW,2013-03-19 10:35:00,
2013-03-19 06:40:00,36.4,30.4,29.39,NW,315,15.7,17.4,79,2.59,,,1.78,WUHU216HW,2013-03-19 10:40:00,
2013-03-19 06:45:00,36.5,30.6,29.39,WNW,293,13.2,17.9,79,2.59,,,1.78,WUHU216HW,2013-03-19 10:45:00,
2013-03-19 06:50:00,36.5,30.3,29.39,NNW,338,7.4,18.6,78,2.59,,,1.78,WUHU216HW,2013-03-19 10:50:00,
2013-03-19 06:55:00,36.5,30.3,29.39,NW,315,9.2,19.5,78,2.59,,,1.78,WUHU216HW,2013-03-19 10:55:00,
2013-03-19 07:00:00,36.5,30.3,29.39,NNW,338,11.2,19.5,78,2.59,,,1.78,WUHU216HW,2013-03-19 11:00:00,
2013-03-19 07:05:00,36.7,30.5,29.39,NNW,338,15.7,17.4,78,2.59,,,2.05,WUHU216HW,2013-03-19 11:05:00,
2013-03-19 07:10:00,36.7,30.5,29.39,NW,315,11.6,17.2,78,2.59,,,2.05,WUHU216HW,2013-03-19 11:10:00,
2013-03-19 07:15:00,36.7,30.2,29.39,West,270,13.9,17.2,77,2.59,,,2.05,WUHU216HW,2013-03-19 11:15:00,
2013-03-19 07:20:00,36.7,30.2,29.40,West,270,13.9,16.8,77,2.59,,,2.05,WUHU216HW,2013-03-19 11:20:00,
2013-03-19 07:25:00,36.5,30.0,29.40,WNW,293,23.0,23.0,77,2.60,,,2.06,WUHU216HW,2013-03-19 11:25:00,
2013-03-19 07:30:00,36.4,28.8,29.40,West,270,17.0,23.0,74,2.60,,,2.06,WUHU216HW,2013-03-19 11:30:00,
2013-03-19 07:35:00,36.4,28.5,29.40,West,270,15.4,22.8,73,2.60,,,2.06,WUHU216HW,2013-03-19 11:35:00,
2013-03-19 07:40:00,36.4,28.5,29.40,NW,315,12.5,20.4,73,2.60,,,2.06,WUHU216HW,2013-03-19 11:40:00,
2013-03-19 07:45:00,36.2,28.6,29.40,West,270,13.4,20.4,74,2.60,,,2.06,WUHU216HW,2013-03-19 11:45:00,
2013-03-19 07:50:00,36.2,28.4,29.40,NW,315,12.8,24.2,73,2.60,,,2.06,WUHU216HW,2013-03-19 11:50:00,
2013-03-19 07:55:00,36.0,28.2,29.40,WNW,293,8.3,24.2,73,2.60,,,2.06,WUHU216HW,2013-03-19 11:55:00,
2013-03-19 08:00:00,36.2,28.4,29.39,NW,315,14.1,20.8,73,2.60,,,2.06,WUHU216HW,2013-03-19 12:00:00,
2013-03-19 08:05:00,36.2,28.4,29.39,WNW,293,13.4,19.2,73,2.60,,,2.35,WUHU216HW,2013-03-19 12:05:00,
2013-03-19 08:10:00,36.0,28.2,29.39,WNW,293,10.1,17.9,73,2.60,,,2.35,WUHU216HW,2013-03-19 12:10:00,
2013-03-19 08:15:00,36.2,28.4,29.39,WNW,293,15.4,16.8,73,2.60,,,2.35,WUHU216HW,2013-03-19 12:15:00,
2013-03-19 08:20:00,36.0,28.2,29.40,West,270,9.2,15.4,73,2.59,,,2.35,WUHU216HW,2013-03-19 12:20:00,
2013-03-19 08:25:00,36.0,28.2,29.39,West,270,15.0,15.4,73,2.59,,,2.35,WUHU216HW,2013-03-19 12:25:00,
2013-03-19 08:30:00,36.0,28.4,29.39,West,270,13.0,18.3,74,2.59,,,2.35,WUHU216HW,2013-03-19 12:30:00,
2013-03-19 08:35:00,35.8,28.3,29.39,West,270,12.3,18.3,74,2.59,,,2.35,WUHU216HW,2013-03-19 12:35:00,
2013-03-19 08:40:00,35.8,28.3,29.39,West,270,15.0,19.7,74,2.59,,,2.35,WUHU216HW,2013-03-19 12:40:00,
2013-03-19 08:45:00,35.6,28.1,29.39,NW,315,14.3,19.7,74,2.59,,,2.35,WUHU216HW,2013-03-19 12:45:00,
2013-03-19 08:50:00,35.8,28.6,29.39,WSW,248,10.1,19.0,75,2.59,,,2.35,WUHU216HW,2013-03-19 12:50:00,
2013-03-19 08:55:00,35.6,28.4,29.39,NW,315,15.0,15.4,75,2.59,,,2.35,WUHU216HW,2013-03-19 12:55:00,
2013-03-19 09:00:00,35.6,28.4,29.39,WNW,293,4.9,15.4,75,2.59,,,2.35,WUHU216HW,2013-03-19 13:00:00,
2013-03-19 09:05:00,35.5,28.3,29.39,NNW,338,12.3,15.4,75,2.59,,,2.63,WUHU216HW,2013-03-19 13:05:00,
2013-03-19 09:10:00,35.5,28.6,29.39,NW,315,9.6,13.9,76,2.59,,,2.63,WUHU216HW,2013-03-19 13:10:00,
2013-03-19 09:15:00,35.5,28.6,29.39,WNW,293,8.7,15.0,76,2.59,,,2.63,WUHU216HW,2013-03-19 13:15:00,
2013-03-19 09:20:00,35.3,28.5,29.39,West,270,14.1,16.3,76,2.59,,,2.63,WUHU216HW,2013-03-19 13:20:00,
2013-03-19 09:25:00,35.3,28.5,29.39,WNW,293,16.8,19.2,76,2.59,,,2.63,WUHU216HW,2013-03-19 13:25:00,
2013-03-19 09:30:00,35.3,28.5,29.39,NNW,338,11.2,19.2,76,2.59,,,2.63,WUHU216HW,2013-03-19 13:30:00,
2013-03-19 09:35:00,35.3,28.5,29.39,West,270,11.9,16.8,76,2.59,,,2.63,WUHU216HW,2013-03-19 13:35:00,
2013-03-19 09:41:00,35.3,28.5,29.40,NW,315,12.8,18.1,76,2.59,,,2.63,WUHU216HW,2013-03-19 13:41:00,
2013-03-19 09:46:00,35.1,28.3,29.39,WNW,293,13.0,18.1,76,2.59,,,2.63,WUHU216HW,2013-03-19 13:46:00,
2013-03-19 09:51:00,34.9,28.1,29.39,WNW,293,21.5,21.5,76,2.59,,,2.63,WUHU216HW,2013-03-19 13:51:00,
2013-03-19 09:56:00,34.6,27.7,29.40,WNW,293,13.9,21.5,76,2.59,,,2.63,WUHU216HW,2013-03-19 13:56:00,
2013-03-19 10:01:00,34.6,27.7,29.39,WNW,293,11.0,21.5,76,2.59,,,2.92,WUHU216HW,2013-03-19 14:01:00,
2013-03-19 10:06:00,34.6,27.7,29.40,NNE,23,11.6,17.4,76,2.59,,,2.92,WUHU216HW,2013-03-19 14:06:00,
2013-03-19 10:11:00,34.2,27.4,29.40,NNW,338,19.9,20.8,76,2.59,,,2.92,WUHU216HW,2013-03-19 14:11:00,
2013-03-19 10:16:00,33.8,27.0,29.39,NW,315,15.9,21.0,76,2.59,,,2.92,WUHU216HW,2013-03-19 14:16:00,
2013-03-19 10:21:00,33.7,26.8,29.39,WNW,293,8.1,21.0,76,2.59,,,2.92,WUHU216HW,2013-03-19 14:21:00,
2013-03-19 10:26:00,33.5,26.6,29.40,WNW,293,12.8,18.3,76,2.59,,,2.92,WUHU216HW,2013-03-19 14:26:00,
2013-03-19 10:31:00,33.5,26.6,29.40,WNW,293,13.0,18.8,76,2.59,,,2.92,WUHU216HW,2013-03-19 14:31:00,
2013-03-19 10:36:00,33.5,26.6,29.40,NW,315,10.5,21.5,76,2.59,,,2.92,WUHU216HW,2013-03-19 14:36:00,
2013-03-19 10:40:00,33.3,26.5,29.40,WSW,248,12.1,21.5,76,2.59,,,2.92,WUHU216HW,2013-03-19 14:40:00,
2013-03-19 10:46:00,33.1,26.3,29.40,NW,315,13.4,17.0,76,2.59,,,2.92,WUHU216HW,2013-03-19 14:46:00,
2013-03-19 10:51:00,33.1,26.3,29.40,NW,315,9.8,18.1,76,2.59,,,2.92,WUHU216HW,2013-03-19 14:51:00,
2013-03-19 10:56:00,32.9,26.2,29.41,WNW,293,17.0,18.1,76,2.59,,,2.92,WUHU216HW,2013-03-19 14:56:00,
2013-03-19 11:00:00,32.8,26.0,29.41,NW,315,12.3,20.1,76,2.59,,,2.92,WUHU216HW,2013-03-19 15:00:00,
2013-03-19 11:06:00,32.8,25.7,29.41,WNW,293,9.8,20.1,75,2.59,,,3.20,WUHU216HW,2013-03-19 15:06:00,
2013-03-19 11:11:00,32.8,25.7,29.41,NW,315,21.3,24.2,75,2.59,,,3.20,WUHU216HW,2013-03-19 15:11:00,
2013-03-19 11:16:00,32.6,25.8,29.41,NNE,23,14.8,24.2,76,2.59,,,3.20,WUHU216HW,2013-03-19 15:16:00,
2013-03-19 11:22:00,32.4,25.7,29.42,West,270,16.3,21.5,76,2.59,,,3.20,WUHU216HW,2013-03-19 15:22:00,
2013-03-19 11:27:00,32.2,25.5,29.42,NW,315,12.8,21.5,76,2.59,,,3.20,WUHU216HW,2013-03-19 15:27:00,
2013-03-19 11:32:00,32.4,25.7,29.42,NW,315,16.1,17.9,76,2.59,,,3.20,WUHU216HW,2013-03-19 15:32:00,
2013-03-19 11:37:00,32.4,25.7,29.42,West,270,15.0,18.6,76,2.59,,,3.20,WUHU216HW,2013-03-19 15:37:00,
2013-03-19 11:42:00,32.0,25.4,29.42,WNW,293,12.5,22.6,76,2.59,,,3.20,WUHU216HW,2013-03-19 15:42:00,
2013-03-19 11:47:00,32.0,25.7,29.42,WNW,293,12.8,22.6,77,2.59,,,3.20,WUHU216HW,2013-03-19 15:47:00,
2013-03-19 11:52:00,32.0,25.7,29.42,West,270,9.8,17.7,77,2.59,,,3.20,WUHU216HW,2013-03-19 15:52:00,
2013-03-19 11:57:00,32.0,25.7,29.42,West,270,8.5,17.7,77,2.59,,,3.20,WUHU216HW,2013-03-19 15:57:00,
2013-03-19 12:02:00,31.9,25.8,29.42,NW,315,14.5,20.1,78,2.59,,,3.49,WUHU216HW,2013-03-19 16:02:00,
2013-03-19 12:07:00,31.7,25.7,29.42,NW,315,13.2,20.1,78,2.59,,,3.49,WUHU216HW,2013-03-19 16:07:00,
2013-03-19 12:12:00,31.7,25.7,29.42,NW,315,10.5,18.1,78,2.59,,,3.49,WUHU216HW,2013-03-19 16:12:00,
2013-03-19 12:17:00,31.7,25.7,29.42,NNW,338,8.5,18.1,78,2.59,,,3.49,WUHU216HW,2013-03-19 16:17:00,
2013-03-19 12:22:00,31.3,25.3,29.42,NW,315,14.1,20.6,78,2.59,,,3.49,WUHU216HW,2013-03-19 16:22:00,
2013-03-19 12:27:00,31.0,24.9,29.42,NW,315,13.6,20.6,78,2.59,,,3.49,WUHU216HW,2013-03-19 16:27:00,
2013-03-19 12:32:00,30.6,24.6,29.42,NW,315,13.2,18.6,78,2.59,,,3.49,WUHU216HW,2013-03-19 16:32:00,
2013-03-19 12:37:00,30.6,24.6,29.42,WNW,293,12.8,19.5,78,2.59,,,3.49,WUHU216HW,2013-03-19 16:37:00,
2013-03-19 12:42:00,30.2,24.5,29.43,WNW,293,10.3,19.5,79,2.59,,,3.49,WUHU216HW,2013-03-19 16:42:00,
2013-03-19 12:48:00,30.1,24.3,29.43,NW,315,14.1,16.8,79,2.59,,,3.49,WUHU216HW,2013-03-19 16:48:00,
2013-03-19 12:52:00,30.1,24.3,29.43,NNW,338,11.4,20.4,79,2.59,,,3.49,WUHU216HW,2013-03-19 16:52:00,
2013-03-19 12:57:00,30.1,24.3,29.43,WNW,293,21.0,21.0,79,2.59,,,3.49,WUHU216HW,2013-03-19 16:57:00,
2013-03-19 13:02:00,30.1,24.3,29.43,WSW,248,9.2,21.3,79,2.59,,,3.77,WUHU216HW,2013-03-19 17:02:00,
2013-03-19 13:07:00,30.1,24.7,29.44,NW,315,15.4,23.9,80,2.59,,,3.77,WUHU216HW,2013-03-19 17:07:00,
2013-03-19 13:13:00,30.1,24.3,29.44,NW,315,11.4,26.2,79,2.59,,,3.77,WUHU216HW,2013-03-19 17:13:00,
2013-03-19 13:18:00,30.2,24.8,29.44,WSW,248,13.9,26.2,80,2.59,,,3.77,WUHU216HW,2013-03-19 17:18:00,
2013-03-19 13:23:00,30.4,24.7,29.44,South,180,7.4,20.1,79,2.59,,,3.77,WUHU216HW,2013-03-19 17:23:00,
2013-03-19 13:28:00,30.6,24.6,29.44,WNW,293,15.9,20.1,78,2.59,,,3.77,WUHU216HW,2013-03-19 17:28:00,
2013-03-19 13:33:00,30.8,24.1,29.44,West,270,16.3,21.5,76,2.59,,,3.77,WUHU216HW,2013-03-19 17:33:00,
2013-03-19 13:38:00,30.8,23.1,29.44,West,270,16.8,23.7,73,2.59,,,3.77,WUHU216HW,2013-03-19 17:38:00,
2013-03-19 13:43:00,30.6,22.3,29.44,NW,315,15.4,26.2,71,2.59,,,3.77,WUHU216HW,2013-03-19 17:43:00,
2013-03-19 13:48:00,30.8,22.5,29.45,NW,315,14.3,26.2,71,2.59,,,3.77,WUHU216HW,2013-03-19 17:48:00,
2013-03-19 13:53:00,31.0,22.7,29.45,WNW,293,13.4,23.5,71,2.59,,,3.77,WUHU216HW,2013-03-19 17:53:00,
2013-03-19 13:58:00,31.0,22.7,29.45,NW,315,15.0,23.5,71,2.59,,,3.77,WUHU216HW,2013-03-19 17:58:00,
2013-03-19 14:03:00,31.0,23.0,29.44,West,270,16.6,23.3,72,2.59,,,4.05,WUHU216HW,2013-03-19 18:03:00,
2013-03-19 14:08:00,31.0,23.0,29.44,West,270,16.3,23.0,72,2.59,,,4.05,WUHU216HW,2013-03-19 18:08:00,
2013-03-19 14:13:00,31.0,23.0,29.45,West,270,14.3,22.4,72,2.59,,,4.05,WUHU216HW,2013-03-19 18:13:00,
2013-03-19 14:18:00,30.8,23.1,29.45,NW,315,15.4,22.6,73,2.59,,,4.05,WUHU216HW,2013-03-19 18:18:00,
2013-03-19 14:23:00,30.6,23.0,29.45,NW,315,13.9,22.6,73,2.59,,,4.05,WUHU216HW,2013-03-19 18:23:00,
2013-03-19 14:28:00,30.4,22.8,29.45,NW,315,16.3,19.5,73,2.59,,,4.05,WUHU216HW,2013-03-19 18:28:00,
2013-03-19 14:33:00,30.4,22.8,29.45,West,270,14.8,21.7,73,2.59,,,4.05,WUHU216HW,2013-03-19 18:33:00,
2013-03-19 14:38:00,30.6,23.0,29.45,West,270,15.0,21.7,73,2.59,,,4.05,WUHU216HW,2013-03-19 18:38:00,
2013-03-19 14:43:00,30.4,22.8,29.46,WNW,293,7.8,20.6,73,2.59,,,4.05,WUHU216HW,2013-03-19 18:43:00,
2013-03-19 14:48:00,30.4,23.0,29.46,NW,315,13.2,22.6,74,2.59,,,4.05,WUHU216HW,2013-03-19 18:48:00,
2013-03-19 14:53:00,30.1,23.4,29.46,NW,315,15.0,22.6,76,2.59,,,4.05,WUHU216HW,2013-03-19 18:53:00,
2013-03-19 14:58:00,30.1,23.4,29.46,WNW,293,9.2,20.1,76,2.59,,,4.05,WUHU216HW,2013-03-19 18:58:00,
2013-03-19 15:03:00,30.1,23.4,29.46,NW,315,9.6,18.6,76,2.59,,,4.34,WUHU216HW,2013-03-19 19:03:00,
2013-03-19 15:08:00,30.2,23.9,29.46,WNW,293,9.6,17.2,77,2.59,,,4.34,WUHU216HW,2013-03-19 19:08:00,
2013-03-19 15:13:00,30.1,23.7,29.46,NW,315,17.4,18.6,77,2.59,,,4.34,WUHU216HW,2013-03-19 19:13:00,
2013-03-19 15:18:00,30.6,23.6,29.47,NW,315,9.8,20.4,75,2.59,,,4.34,WUHU216HW,2013-03-19 19:18:00,
2013-03-19 15:23:00,30.6,22.6,29.46,West,270,9.4,23.0,72,2.59,,,4.34,WUHU216HW,2013-03-19 19:23:00,
2013-03-19 15:28:00,30.6,22.6,29.47,NW,315,11.0,23.0,72,2.59,,,4.34,WUHU216HW,2013-03-19 19:28:00,
2013-03-19 15:33:00,30.6,23.0,29.47,NW,315,15.4,15.4,73,2.59,,,4.34,WUHU216HW,2013-03-19 19:33:00,
2013-03-19 15:38:00,30.6,23.2,29.47,NW,315,10.7,19.9,74,2.59,,,4.34,WUHU216HW,2013-03-19 19:38:00,
2013-03-19 15:43:00,30.8,23.8,29.47,West,270,15.7,19.9,75,2.59,,,4.34,WUHU216HW,2013-03-19 19:43:00,
2013-03-19 15:48:00,30.6,23.2,29.47,NW,315,17.0,17.2,74,2.59,,,4.34,WUHU216HW,2013-03-19 19:48:00,
2013-03-19 15:53:00,30.6,23.2,29.48,WNW,293,16.8,20.1,74,2.59,,,4.34,WUHU216HW,2013-03-19 19:53:00,
2013-03-19 15:58:00,30.6,23.2,29.47,NNW,338,12.8,21.3,74,2.59,,,4.34,WUHU216HW,2013-03-19 19:58:00,
2013-03-19 16:03:00,30.8,23.1,29.47,NW,315,19.2,21.3,73,2.59,,,4.62,WUHU216HW,2013-03-19 20:03:00,
2013-03-19 16:08:00,30.6,22.6,29.47,NNW,338,11.2,24.6,72,2.59,,,4.62,WUHU216HW,2013-03-19 20:08:00,
2013-03-19 16:13:00,30.4,22.8,29.48,NW,315,8.7,24.6,73,2.59,,,4.62,WUHU216HW,2013-03-19 20:13:00,
2013-03-19 16:18:00,30.2,22.6,29.48,WSW,248,19.2,20.6,73,2.59,,,4.62,WUHU216HW,2013-03-19 20:18:00,
2013-03-19 16:23:00,29.9,22.6,29.48,NW,315,14.1,20.6,74,2.59,,,4.62,WUHU216HW,2013-03-19 20:23:00,
2013-03-19 16:28:00,29.9,23.2,29.48,NW,315,14.8,19.2,76,2.59,,,4.62,WUHU216HW,2013-03-19 20:28:00,
2013-03-19 16:33:00,30.1,23.7,29.47,NW,315,12.3,20.6,77,2.59,,,4.62,WUHU216HW,2013-03-19 20:33:00,
2013-03-19 16:38:00,29.9,23.2,29.48,NW,315,18.6,24.4,76,2.59,,,4.62,WUHU216HW,2013-03-19 20:38:00,
2013-03-19 16:43:00,29.9,23.2,29.48,WNW,293,15.7,25.9,76,2.59,,,4.62,WUHU216HW,2013-03-19 20:43:00,
2013-03-19 16:48:00,29.9,22.9,29.48,WNW,293,8.1,25.9,75,2.59,,,4.62,WUHU216HW,2013-03-19 20:48:00,
2013-03-19 16:53:00,30.1,22.4,29.48,NW,315,15.0,24.2,73,2.59,,,4.62,WUHU216HW,2013-03-19 20:53:00,
2013-03-19 16:58:00,30.2,22.2,29.48,WNW,293,20.4,25.5,72,2.59,,,4.62,WUHU216HW,2013-03-19 20:58:00,
2013-03-19 17:03:00,30.2,21.6,29.48,NNW,338,28.6,28.6,70,2.59,,,4.91,WUHU216HW,2013-03-19 21:03:00,
2013-03-19 17:08:00,30.1,21.4,29.48,NW,315,19.9,28.6,70,2.59,,,4.91,WUHU216HW,2013-03-19 21:08:00,
2013-03-19 17:13:00,29.9,22.0,29.49,West,270,14.8,27.7,72,2.59,,,4.91,WUHU216HW,2013-03-19 21:13:00,
2013-03-19 17:18:00,29.9,21.6,29.48,NW,315,15.7,25.3,71,2.59,,,4.91,WUHU216HW,2013-03-19 21:18:00,
2013-03-19 17:23:00,29.7,21.8,29.49,WNW,293,17.4,25.3,72,2.59,,,4.91,WUHU216HW,2013-03-19 21:23:00,
2013-03-19 17:28:00,29.7,21.8,29.49,NNW,338,18.6,23.0,72,2.59,,,4.91,WUHU216HW,2013-03-19 21:28:00,
2013-03-19 17:34:00,29.5,21.9,29.49,WSW,248,17.0,23.7,73,2.59,,,4.91,WUHU216HW,2013-03-19 21:34:00,
2013-03-19 17:39:00,29.3,22.1,29.49,NW,315,19.5,24.2,74,2.59,,,4.91,WUHU216HW,2013-03-19 21:39:00,
2013-03-19 17:44:00,29.0,22.3,29.49,WNW,293,14.5,22.1,76,2.59,,,4.91,WUHU216HW,2013-03-19 21:44:00,
2013-03-19 17:49:00,28.8,21.9,29.50,NW,315,6.3,21.7,75,2.59,,,4.91,WUHU216HW,2013-03-19 21:49:00,
2013-03-19 17:54:00,28.6,22.3,29.50,West,270,20.8,20.8,77,2.59,,,4.91,WUHU216HW,2013-03-19 21:54:00,
2013-03-19 17:59:00,28.4,22.2,29.50,NNW,338,7.6,21.3,77,2.59,,,4.91,WUHU216HW,2013-03-19 21:59:00,
2013-03-19 18:04:00,28.4,22.4,29.50,NW,315,17.0,21.3,78,2.59,,,5.19,WUHU216HW,2013-03-19 22:04:00,
2013-03-19 18:09:00,28.1,22.4,29.50,NW,315,12.5,17.2,79,2.59,,,5.19,WUHU216HW,2013-03-19 22:09:00,
2013-03-19 18:14:00,27.7,22.3,29.50,NW,315,11.4,19.0,80,2.59,,,5.19,WUHU216HW,2013-03-19 22:14:00,
2013-03-19 18:19:00,27.5,22.7,29.50,West,270,10.1,19.2,82,2.59,,,5.19,WUHU216HW,2013-03-19 22:19:00,
2013-03-19 18:24:00,27.4,22.9,29.50,NW,315,13.4,19.2,83,2.59,,,5.19,WUHU216HW,2013-03-19 22:24:00,
2013-03-19 18:29:00,27.4,22.9,29.50,WSW,248,10.7,18.6,83,2.59,,,5.19,WUHU216HW,2013-03-19 22:29:00,
2013-03-19 18:34:00,27.4,22.9,29.50,NW,315,9.2,15.0,83,2.59,,,5.19,WUHU216HW,2013-03-19 22:34:00,
2013-03-19 18:39:00,27.4,22.9,29.50,NW,315,12.5,14.8,83,2.59,,,5.19,WUHU216HW,2013-03-19 22:39:00,
2013-03-19 18:44:00,27.4,22.5,29.50,WNW,293,15.7,20.1,82,2.59,,,5.19,WUHU216HW,2013-03-19 22:44:00,
2013-03-19 18:49:00,27.4,22.5,29.51,West,270,13.0,21.3,82,2.59,,,5.19,WUHU216HW,2013-03-19 22:49:00,
2013-03-19 18:54:00,27.0,22.5,29.50,NW,315,18.6,23.0,83,2.59,,,5.19,WUHU216HW,2013-03-19 22:54:00,
2013-03-19 18:59:00,26.8,22.6,29.51,NW,315,15.0,23.0,84,2.59,,,5.19,WUHU216HW,2013-03-19 22:59:00,
2013-03-19 19:04:00,27.0,22.5,29.51,West,270,19.2,20.4,83,2.59,,,5.47,WUHU216HW,2013-03-19 23:04:00,
2013-03-19 19:09:00,27.0,22.5,29.51,WNW,293,13.6,20.4,83,2.59,,,5.47,WUHU216HW,2013-03-19 23:09:00,
2013-03-19 19:14:00,27.0,22.1,29.51,NW,315,12.3,19.2,82,2.59,,,5.47,WUHU216HW,2013-03-19 23:14:00,
2013-03-19 19:19:00,27.2,22.3,29.51,NW,315,12.3,18.8,82,2.59,,,5.47,WUHU216HW,2013-03-19 23:19:00,
2013-03-19 19:24:00,27.2,22.1,29.51,WNW,293,12.8,15.9,81,2.59,,,5.47,WUHU216HW,2013-03-19 23:24:00,
2013-03-19 19:29:00,27.4,22.0,29.51,NW,315,13.4,15.9,80,2.59,,,5.47,WUHU216HW,2013-03-19 23:29:00,
2013-03-19 19:34:00,27.4,22.2,29.51,NNW,338,12.5,18.1,81,2.59,,,5.47,WUHU216HW,2013-03-19 23:34:00,
2013-03-19 19:39:00,27.0,22.1,29.51,SW,225,13.4,18.6,82,2.59,,,5.47,WUHU216HW,2013-03-19 23:39:00,
2013-03-19 19:44:00,27.0,22.1,29.51,WNW,293,9.2,18.6,82,2.59,,,5.47,WUHU216HW,2013-03-19 23:44:00,
2013-03-19 19:49:00,27.2,22.3,29.52,WNW,293,9.2,16.6,82,2.59,,,5.47,WUHU216HW,2013-03-19 23:49:00,
2013-03-19 19:54:00,27.4,22.5,29.52,NW,315,13.6,16.3,82,2.59,,,5.47,WUHU216HW,2013-03-19 23:54:00,
2013-03-19 19:59:00,27.4,22.5,29.52,North,0,6.9,15.9,82,2.59,,,5.47,WUHU216HW,2013-03-19 23:59:00,
2013-03-19 20:04:00,27.4,22.5,29.52,NW,315,9.8,15.9,82,2.59,,,5.76,WUHU216HW,2013-03-20 00:04:00,
2013-03-19 20:09:00,27.4,22.9,29.52,WNW,293,17.2,17.2,83,2.59,,,5.76,WUHU216HW,2013-03-20 00:09:00,
2013-03-19 20:14:00,27.4,22.9,29.52,NW,315,8.9,17.2,83,2.59,,,5.76,WUHU216HW,2013-03-20 00:14:00,
2013-03-19 20:19:00,27.2,22.3,29.51,WSW,248,4.9,17.2,82,2.59,,,5.76,WUHU216HW,2013-03-20 00:19:00,
2013-03-19 20:24:00,27.4,22.5,29.51,WNW,293,10.1,13.9,82,2.59,,,5.76,WUHU216HW,2013-03-20 00:24:00,
2013-03-19 20:29:00,27.5,22.7,29.52,NW,315,8.1,19.5,82,2.59,,,5.76,WUHU216HW,2013-03-20 00:29:00,
2013-03-19 20:34:00,27.5,22.4,29.51,WNW,293,10.1,19.5,81,2.59,,,5.76,WUHU216HW,2013-03-20 00:34:00,
2013-03-19 20:39:00,27.5,22.4,29.51,NNW,338,8.5,19.0,81,2.59,,,5.76,WUHU216HW,2013-03-20 00:39:00,
2013-03-19 20:44:00,27.5,22.4,29.51,NW,315,14.5,16.3,81,2.59,,,5.76,WUHU216HW,2013-03-20 00:44:00,
2013-03-19 20:49:00,27.7,22.6,29.51,NW,315,8.5,14.5,81,2.59,,,5.76,WUHU216HW,2013-03-20 00:49:00,
2013-03-19 20:54:00,27.7,22.6,29.51,NW,315,7.6,14.5,81,2.59,,,5.76,WUHU216HW,2013-03-20 00:54:00,
2013-03-19 20:59:00,27.7,22.6,29.51,WNW,293,8.3,13.2,81,2.59,,,5.76,WUHU216HW,2013-03-20 00:59:00,
2013-03-19 21:04:00,27.7,22.6,29.52,NW,315,16.1,18.1,81,2.59,,,6.05,WUHU216HW,2013-03-20 01:04:00,
2013-03-19 21:09:00,27.7,22.6,29.51,NNW,338,10.7,18.8,81,2.59,,,6.05,WUHU216HW,2013-03-20 01:09:00,
2013-03-19 21:14:00,27.5,22.4,29.52,NW,315,10.5,18.8,81,2.59,,,6.05,WUHU216HW,2013-03-20 01:14:00,
2013-03-19 21:19:00,27.5,22.4,29.51,West,270,6.5,16.6,81,2.59,,,6.05,WUHU216HW,2013-03-20 01:19:00,
2013-03-19 21:24:00,27.4,22.2,29.51,NW,315,13.6,13.6,81,2.59,,,6.05,WUHU216HW,2013-03-20 01:24:00,
2013-03-19 21:29:00,27.4,22.2,29.51,West,270,11.0,14.3,81,2.59,,,6.05,WUHU216HW,2013-03-20 01:29:00,
2013-03-19 21:34:00,27.5,22.4,29.51,NW,315,7.4,14.5,81,2.59,,,6.05,WUHU216HW,2013-03-20 01:34:00,
2013-03-19 21:39:00,27.5,22.4,29.51,NW,315,7.6,14.8,81,2.59,,,6.05,WUHU216HW,2013-03-20 01:39:00,
2013-03-19 21:44:00,27.7,22.3,29.52,West,270,10.5,14.8,80,2.59,,,6.05,WUHU216HW,2013-03-20 01:44:00,
2013-03-19 21:49:00,27.7,22.1,29.52,NW,315,7.6,13.6,79,2.59,,,6.05,WUHU216HW,2013-03-20 01:49:00,
2013-03-19 21:54:00,27.7,21.7,29.52,West,270,11.4,18.6,78,2.59,,,6.05,WUHU216HW,2013-03-20 01:54:00,
2013-03-19 21:59:00,27.7,21.1,29.52,WSW,248,11.6,20.8,76,2.59,,,6.05,WUHU216HW,2013-03-20 01:59:00,
2013-03-19 22:04:00,27.2,20.9,29.52,NW,315,10.5,20.8,77,2.59,,,6.33,WUHU216HW,2013-03-20 02:04:00,
2013-03-19 22:09:00,26.8,21.2,29.52,North,0,8.3,16.3,79,2.59,,,6.33,WUHU216HW,2013-03-20 02:09:00,
2013-03-19 22:14:00,26.6,21.0,29.52,WNW,293,7.2,16.3,79,2.59,,,6.33,WUHU216HW,2013-03-20 02:14:00,
2013-03-19 22:19:00,26.6,21.2,29.52,NNW,338,6.0,15.4,80,2.59,,,6.33,WUHU216HW,2013-03-20 02:19:00,
2013-03-19 22:24:00,26.6,21.2,29.52,NNW,338,9.8,13.6,80,2.59,,,6.33,WUHU216HW,2013-03-20 02:24:00,
2013-03-19 22:29:00,26.8,21.2,29.52,West,270,6.3,13.6,79,2.59,,,6.33,WUHU216HW,2013-03-20 02:29:00,
2013-03-19 22:34:00,26.8,21.2,29.52,NW,315,5.4,11.6,79,2.59,,,6.33,WUHU216HW,2013-03-20 02:34:00,
2013-03-19 22:39:00,26.8,20.2,29.52,West,270,6.9,15.4,76,2.59,,,6.33,WUHU216HW,2013-03-20 02:39:00,
2013-03-19 22:44:00,26.8,20.2,29.52,WNW,293,7.6,15.4,76,2.59,,,6.33,WUHU216HW,2013-03-20 02:44:00,
2013-03-19 22:49:00,26.8,19.9,29.52,NW,315,6.5,14.1,75,2.59,,,6.33,WUHU216HW,2013-03-20 02:49:00,
2013-03-19 22:54:00,26.6,19.7,29.53,NW,315,8.3,14.3,75,2.59,,,6.33,WUHU216HW,2013-03-20 02:54:00,
2013-03-19 22:59:00,26.6,19.7,29.53,WNW,293,11.9,15.4,75,2.59,,,6.33,WUHU216HW,2013-03-20 02:59:00,
2013-03-19 23:04:00,26.5,19.3,29.53,NNW,338,9.2,15.4,74,2.59,,,6.61,WUHU216HW,2013-03-20 03:04:00,
2013-03-19 23:09:00,26.6,19.5,29.53,NW,315,8.9,13.9,74,2.59,,,6.61,WUHU216HW,2013-03-20 03:09:00,
2013-03-19 23:14:00,26.5,18.6,29.52,NW,315,14.1,14.1,72,2.59,,,6.61,WUHU216HW,2013-03-20 03:14:00,
2013-03-19 23:19:00,26.3,18.7,29.53,West,270,5.8,14.8,73,2.59,,,6.61,WUHU216HW,2013-03-20 03:19:00,
2013-03-19 23:24:00,26.3,18.5,29.53,NW,315,8.1,14.8,72,2.59,,,6.61,WUHU216HW,2013-03-20 03:24:00,
2013-03-19 23:29:00,26.3,18.5,29.53,NNW,338,8.1,17.2,72,2.59,,,6.61,WUHU216HW,2013-03-20 03:29:00,
2013-03-19 23:34:00,26.1,18.5,29.53,West,270,6.5,17.2,73,2.59,,,6.61,WUHU216HW,2013-03-20 03:34:00,
2013-03-19 23:39:00,26.1,18.3,29.53,NW,315,9.2,13.9,72,2.59,,,6.61,WUHU216HW,2013-03-20 03:39:00,
2013-03-19 23:44:00,25.9,18.1,29.53,North,0,9.8,12.8,72,2.59,,,6.61,WUHU216HW,2013-03-20 03:44:00,
2013-03-19 23:49:00,25.9,18.1,29.54,NNE,23,11.6,13.4,72,2.59,,,6.61,WUHU216HW,2013-03-20 03:49:00,
2013-03-19 23:54:00,25.9,18.4,29.54,WNW,293,8.9,15.7,73,2.59,,,6.61,WUHU216HW,2013-03-20 03:54:00,
2013-03-19 23:59:00,25.9,18.4,29.54,NW,315,11.4,16.3,73,2.59,,,6.61,WUHU216HW,2013-03-20 03:59:00,